Regional Weather Roundup
Issued by NWS Albany, NY

Home | Current Version | Previous Version | Text Only | Print | Product List | Glossary On
Versions: 1 2 3 4 5 6 7 8 9 10 11 12 13 14 15 16 17 18 19 20 21 22 23 24 25 26 27 28 29 30 31 32 33 34 35 36 37 38 39 40 41 42 43 44 45 46 47 48 49 50
000
ASUS41 KALY 241810
RWRALY

NEW YORK STATE HOURLY WEATHER ROUNDUP
NATIONAL WEATHER SERVICE ALBANY NY
200 PM EDT WED AUG 24 2016

NOTE: "FAIR" INDICATES FEW OR NO CLOUDS BELOW 12,000 FEET WITH NO
SIGNIFICANT WEATHER AND/OR NO OBSTRUCTIONS TO VISIBILITY.

NYZ032-033-038>043-046>054-057>066-NYZ062>081-082-084-241900-
EAST


CITY           SKY/WX    TMP DP  RH WIND       PRES   REMARKS
ALBANY         MOSUNNY   83  61  47 SE7       30.19F
GLENS FALLS    SUNNY     80  64  58 S12       30.18F
POUGHKEEPSIE   SUNNY     85  58  39 SW9       30.20F
MONTGOMERY     SUNNY     84  64  50 SW12      30.21F
WHITE PLAINS   SUNNY     84  55  36 SW9       30.22F
ISLIP          MOSUNNY   84  58  40 S13       30.22F
NEW YORK CITY  MOSUNNY   88  56  33 VRB6      30.21F
CENTRAL PARK   SUNNY     86  59  39 CALM      30.24F
$$

NYZ005>009-017-018-044>046-055-056-241900-
CENTRAL


CITY           SKY/WX    TMP DP  RH WIND       PRES   REMARKS
FULTON         SUNNY     84  61  45 S10       30.15F
SYRACUSE       PTSUNNY   84  60  44 S12G17    30.14F
ROME           SUNNY     83  62  49 S10       30.18F
ELMIRA         SUNNY     84  60  44 S13       30.18F
BINGHAMTON     SUNNY     78  60  53 S8G20     30.23F
MONTICELLO     SUNNY     79  61  53 MISG      30.27F
$$

NYZ026>034-041>043-087-241900-
NORTH


CITY           SKY/WX    TMP DP  RH WIND       PRES   REMARKS
WATERTOWN      SUNNY     84  59  42 SW9       30.14F
FORT DRUM      NOT AVBL
MASSENA        SUNNY     84  60  44 SW13      30.12F
SARANAC LAKE   SUNNY     80  56  43 SW10      30.18F
PLATTSBURGH    SUNNY     79  64  60 SE16      30.13F
$$

NYZ001>004-010>016-019>021-085-241900-
WEST


CITY           SKY/WX    TMP DP  RH WIND       PRES   REMARKS
NIAGARA FALLS  PTSUNNY   84  60  44 SW13G21   30.12F
BUFFALO        PTSUNNY   83  58  42 SW9G16    30.13F
DUNKIRK        SUNNY     83  60  45 SW12      30.14F
JAMESTOWN      SUNNY     77  57  50 S12G17    30.19F
WELLSVILLE     SUNNY     80  59  48 VRB7      30.25F
ROCHESTER      MOSUNNY   86  61  42 S13G24    30.13F
PENN YAN       SUNNY     84  60  44 S13G21    30.17F
$$

             KEY
       WCI = WIND CHILL INDEX
       VSB = VISIBILITY
       HX  = HEAT INDEX
$$



USA.gov is the U.S. government's official web portal to all federal, state and local government web resources and services.